Regional Weather Roundup
Issued by NWS Goodland, KS

Home | Current Version | Previous Version | Text Only | Print | Product List | Glossary Off
Versions: 1 2 3 4 5 6 7 8 9 10 11 12 13 14 15 16 17 18 19 20 21 22 23 24 25 26 27 28 29 30 31 32 33 34 35 36 37 38 39 40 41 42 43 44 45 46 47 48 49 50

000
ASUS43 KGLD 051659
RWRGLD

GOODLAND FORECAST AREA HOURLY WEATHER ROUNDUP
NATIONAL WEATHER SERVICE GOODLAND KS
1000 AM MST MON DEC 05 2016

...OFFICIAL OBSERVATIONS...

CITY           SKY/WX    TMP DP  RH WIND       PRES   REMARKS
GOODLAND KS    SUNNY     54  20  26 N13       29.56S
HILL CITY KS   SUNNY     43  27  53 SW9       29.60S
IMPERIAL NEB   CLOUDY    44  19  36 W5        29.59
MCCOOK NEB     SUNNY     40  22  48 VRB3      29.61
AKRON CO       CLOUDY    47  19  33 SW3       29.61
BURLINGTON CO  SUNNY     53  17  24 W3        29.59
LIMON CO       SUNNY     53  17  24 NW13      29.62R
$$

...UNOFFICIAL OBSERVATIONS...

CITY           SKY/WX    TMP DP  RH WIND       PRES   REMARKS
COLBY KS       SUNNY     52  25  35 NW16      29.57S
LENORA KS        N/A     42  32  68 MISG        N/A
NORTON KS      SUNNY     43  21  42 CALM      29.60R
SHARON SPRINGS   N/A     52  25  35 W6          N/A
TRENTON NEB      N/A     39  32  76 CALM        N/A
KIT CARSON CO    N/A     42  21  43 CALM        N/A
YUMA CO        CLOUDY    41  21  45 W5        29.61S
$$




USA.gov is the U.S. government's official web portal to all federal, state and local government web resources and services.